DW8661 Weather Reports


time (UTC)temp
F
wind
direction
speed
knots
gust
knots
rain 1hr
in
rain 24hr
in
rain mn
in
humidity
%
barometer
mb
20260503071559 57 213 0.9 4.3 0.00 0.43 0.00 83 1015.1
20260503054558 54 275 0.0 3.5 0.00 0.48 0.00 90 1015.0
20260503053059 55 326 3.5 6.1 0.00 0.48 0.00 87 1014.9
20260503051559 56 200 0.0 2.6 0.00 0.48 0.00 88 1014.7
20260503044559 56 105 1.7 3.5 0.00 0.48 0.00 88 1014.6
20260503043108 56 63 0.0 0.0 0.00 0.48 0.00 87 1014.9
20260503041559 56 63 0.9 3.5 0.00 0.48 0.00 87 1014.7
20260503040104 56 89 0.9 2.6 0.00 0.48 0.00 87 1014.8
20260503040003 56 61 0.9 2.6 0.00 0.48 0.00 87 1014.8
20260503034611 56 62 0.0 3.5 0.00 0.48 0.00 88 1015.0
20260503033059 56 51 2.6 4.3 0.00 0.48 0.00 88 1015.1
20260503031558 56 75 1.7 4.3 0.00 0.48 0.00 88 1015.3
20260503030059 56 52 1.7 3.5 0.00 0.48 0.00 87 1015.4
20260503024559 57 42 1.7 5.2 0.00 0.48 0.00 87 1015.5
20260503023100 57 85 0.9 4.3 0.00 0.48 0.00 86 1015.5
20260503021559 58 65 0.9 2.6 0.00 0.48 0.00 85 1015.5
20260503020059 58 69 0.9 2.6 0.00 0.48 0.00 85 1015.5
20260503014615 58 58 0.0 0.9 0.00 0.48 0.00 86 1015.5
20260503013058 58 38 0.0 0.0 0.00 0.48 0.00 86 1015.5
20260503011558 58 83 0.0 0.0 0.00 0.48 0.00 84 1015.7
20260503010104 59 83 0.0 0.0 0.00 0.48 0.00 83 1015.6
20260503004558 59 84 0.0 0.9 0.00 0.48 0.00 82 1016.0
20260503003106 59 83 0.0 0.9 0.00 0.48 0.00 83 1016.0
20260503001612 59 81 0.0 0.9 0.00 0.48 0.00 83 1016.1
20260502234559 59 96 0.9 1.7 0.00 0.48 0.00 84 1016.4
20260502233100 58 11 0.0 1.7 0.00 0.48 0.00 84 1016.4
20260502231603 58 11 1.7 3.5 0.00 0.48 0.00 84 1016.4
20260502230059 59 17 1.7 3.5 0.00 0.48 0.00 83 1016.4
20260502230001 59 331 0.9 3.5 0.00 0.48 0.00 82 1016.4
20260502224500 60 322 1.7 2.6 0.00 0.48 0.00 79 1016.6
20260502223101 61 240 0.9 3.5 0.00 0.48 0.00 77 1016.4
20260502221500 61 152 1.7 4.3 0.00 0.48 0.00 77 1016.5
20260502220100 60 191 1.7 4.3 0.00 0.48 0.00 77 1016.6
20260502214606 60 167 1.7 4.3 0.00 0.48 0.48 78 1016.7
20260502213059 60 217 0.9 3.5 0.00 0.48 0.48 78 1016.6
20260502211600 60 176 0.9 2.6 0.00 0.48 0.48 79 1016.5
20260502210128 59 158 0.9 2.6 0.00 0.48 0.48 80 1016.3
20260502204559 59 169 0.9 2.6 0.00 0.48 0.48 81 1016.5
20260502203059 59 227 0.0 1.7 0.00 0.48 0.48 80 1016.2
20260502201612 59 247 0.0 2.6 0.00 0.48 0.48 80 1016.0
20260502200100 60 223 0.9 2.6 0.00 0.48 0.48 80 1015.9
20260502200002 60 197 0.9 2.6 0.00 0.48 0.48 80 1016.0
20260502194600 60 205 0.0 1.7 0.00 0.48 0.48 79 1015.9
20260502194501 60 205 0.0 1.7 0.00 0.48 0.48 79 1015.8
20260502193101 60 215 0.9 2.6 0.00 0.48 0.48 78 1015.6
20260502191501 60 237 0.9 2.6 0.00 0.48 0.48 78 1015.6
20260502190001 61 212 0.9 4.3 0.00 0.48 0.48 77 1015.6
20260502184611 61 205 0.9 3.5 0.00 0.48 0.48 76 1015.5
20260502183105 61 168 0.0 1.7 0.00 0.48 0.48 76 1015.4
20260502181610 62 282 0.0 1.7 0.00 0.48 0.48 76 1015.5
20260502163100 59 19 0.0 3.5 0.00 0.48 0.48 83 1016.0
20260502161559 58 207 0.0 5.2 0.02 0.48 0.48 85 1016.3
20260502151622 65 270 5.2 11.3 0.00 0.46 0.46 69 1015.8
20260502150109 65 193 2.6 8.7 0.00 0.46 0.46 72 1015.9
20260502123106 58 172 7.0 11.3 0.17 0.44 0.44 85 1018.7
20260502121558 61 153 4.3 10.4 0.06 0.32 0.32 81 1018.2
20260502114601 62 125 1.7 7.8 0.00 0.27 0.27 77 1017.9
20260502113058 62 198 4.3 11.3 0.00 0.27 0.27 76 1018.3
20260502111600 62 176 5.2 9.6 0.00 0.27 0.27 77 1018.6
20260502110103 60 140 5.2 10.4 0.00 0.27 0.27 81 1018.7
20260502104559 60 221 2.6 8.7 0.00 0.27 0.27 83 1019.0
20260502103107 60 95 3.5 6.1 0.01 0.27 0.27 84 1019.1
20260502101634 60 117 0.9 4.3 0.01 0.27 0.27 85 1019.1
20260502100120 59 189 0.9 6.1 0.01 0.27 0.27 86 1019.3
20260502080107 58 158 2.6 5.2 0.09 0.15 0.15 88 1019.9